
Tropical Cyclone Product Developer
| Date Time MST |
Temp °F |
RH % |
DewPt °F |
Wind mph |
Dir ° |
Gust mph |
Dir ° |
Press in Hg |
Solar W/m^2 |
Prec in |
|---|---|---|---|---|---|---|---|---|---|---|
| 2026-05-05 10:00 | 33.7 | 94.0 | 32.2 | 0.0 | 38 | 0.0 | 43 | 24.834 | 129.0 | 0.01 |
| 2026-05-05 09:55 | 33.7 | 93.9 | 32.1 | 0.0 | 43 | 0.0 | 58 | 24.833 | 119.8 | 0.00 |
| 2026-05-05 09:50 | 33.6 | 93.9 | 32.0 | 0.2 | 58 | 0.9 | 59 | 24.833 | 121.2 | 0.00 |
| 2026-05-05 09:45 | 33.6 | 93.6 | 32.0 | 1.5 | 59 | 1.8 | 70 | 24.833 | 113.4 | 0.01 |
| 2026-05-05 09:40 | 34.0 | 93.3 | 32.3 | 1.2 | 65 | 1.8 | 65 | 24.834 | 106.7 | 0.00 |
| 2026-05-05 09:35 | 34.2 | 93.6 | 32.6 | 0.3 | 44 | 0.9 | 54 | 24.835 | 95.1 | 0.00 |
| 2026-05-05 09:30 | 34.4 | 93.6 | 32.7 | 0.0 | 65 | 0.0 | 71 | 24.835 | 86.3 | 0.00 |
| 2026-05-05 09:25 | 34.5 | 93.6 | 32.9 | 0.7 | 71 | 2.3 | 70 | 24.835 | 83.1 | 0.01 |
| 2026-05-05 09:20 | 34.8 | 93.9 | 33.2 | 0.4 | 72 | 2.1 | 72 | 24.835 | 73.0 | 0.01 |
| 2026-05-05 09:15 | 34.5 | 94.4 | 33.1 | 0.1 | 202 | 0.9 | 202 | 24.836 | 72.9 | 0.00 |
| 2026-05-05 09:10 | 34.4 | 94.4 | 33.0 | 1.8 | 202 | 2.6 | 236 | 24.839 | 70.6 | 0.01 |
| 2026-05-05 09:05 | 34.4 | 94.4 | 33.0 | 2.7 | 238 | 3.8 | 221 | 24.843 | 68.8 | 0.01 |
| 2026-05-05 09:00 | 34.5 | 94.7 | 33.2 | 3.0 | 227 | 4.1 | 223 | 24.845 | 67.8 | 0.01 |
| 2026-05-05 08:55 | 34.4 | 95.0 | 33.1 | 2.1 | 202 | 2.8 | 207 | 24.846 | 75.8 | 0.01 |
| 2026-05-05 08:50 | 34.3 | 95.2 | 33.1 | 2.2 | 236 | 3.0 | 260 | 24.846 | 80.9 | 0.00 |
| 2026-05-05 08:45 | 34.3 | 95.3 | 33.1 | 1.6 | 262 | 2.9 | 262 | 24.846 | 81.6 | 0.01 |
| 2026-05-05 08:40 | 34.0 | 95.3 | 32.8 | 2.1 | 268 | 3.0 | 286 | 24.846 | 79.7 | 0.01 |
| 2026-05-05 08:35 | 33.7 | 95.3 | 32.5 | 1.7 | 283 | 2.1 | 288 | 24.846 | 85.3 | 0.01 |
| 2026-05-05 08:30 | 33.5 | 95.2 | 32.3 | 1.4 | 307 | 1.8 | 310 | 24.846 | 79.6 | 0.01 |
| 2026-05-05 08:25 | 33.5 | 95.0 | 32.2 | 0.4 | 310 | 1.3 | 310 | 24.843 | 75.2 | 0.01 |
| 2026-05-05 08:20 | 33.6 | 95.1 | 32.4 | 0.0 | 296 | 0.0 | 296 | 24.843 | 76.4 | 0.01 |
| 2026-05-05 08:15 | 33.5 | 95.2 | 32.3 | 0.0 | 296 | 0.0 | 296 | 24.844 | 65.2 | 0.00 |
| 2026-05-05 08:10 | 33.5 | 95.2 | 32.3 | 0.0 | 296 | 0.0 | 296 | 24.843 | 51.0 | 0.02 |
| 2026-05-05 08:05 | 33.5 | 95.3 | 32.3 | 0.1 | 296 | 0.9 | 294 | 24.843 | 51.0 | 0.00 |
| 2026-05-05 08:00 | 33.3 | 95.4 | 32.1 | 1.6 | 294 | 2.3 | 315 | 24.843 | 58.5 | 0.00 |
| 2026-05-05 07:55 | 33.1 | 95.4 | 32.0 | 1.9 | 315 | 2.5 | 319 | 24.843 | 63.8 | 0.00 |
| 2026-05-05 07:50 | 33.0 | 95.4 | 31.9 | 2.7 | 319 | 3.1 | 322 | 24.841 | 61.6 | 0.00 |
| 2026-05-05 07:45 | 33.1 | 95.3 | 31.9 | 3.2 | 323 | 3.4 | 320 | 24.839 | 49.5 | 0.00 |
| 2026-05-05 07:40 | 33.0 | 95.2 | 31.8 | 3.3 | 315 | 3.6 | 315 | 24.839 | 40.3 | 0.00 |
| 2026-05-05 07:35 | 33.0 | 95.3 | 31.8 | 2.8 | 314 | 3.5 | 314 | 24.841 | 38.3 | 0.00 |
| Date Time MST |
Temp °C |
RH % |
DewPt °C |
Wind m/s |
Dir ° |
Gust m/s |
Dir ° |
Press hPa |
Solar W/m^2 |
Prec mm |
|---|---|---|---|---|---|---|---|---|---|---|
| 2026-05-05 10:00 | 1.0 | 94.0 | 0.1 | 0.0 | 38 | 0.0 | 43 | 840.98 | 129.0 | 0.25 |
| 2026-05-05 09:55 | 0.9 | 93.9 | 0.1 | 0.0 | 43 | 0.0 | 58 | 840.96 | 119.8 | 0.00 |
| 2026-05-05 09:50 | 0.9 | 93.9 | -0.0 | 0.1 | 58 | 0.4 | 59 | 840.95 | 121.2 | 0.00 |
| 2026-05-05 09:45 | 0.9 | 93.6 | -0.0 | 0.7 | 59 | 0.8 | 70 | 840.93 | 113.4 | 0.25 |
| 2026-05-05 09:40 | 1.1 | 93.3 | 0.1 | 0.5 | 65 | 0.8 | 65 | 840.96 | 106.7 | 0.00 |
| 2026-05-05 09:35 | 1.2 | 93.6 | 0.3 | 0.1 | 44 | 0.4 | 54 | 841.00 | 95.1 | 0.00 |
| 2026-05-05 09:30 | 1.3 | 93.6 | 0.4 | 0.0 | 65 | 0.0 | 71 | 841.01 | 86.3 | 0.00 |
| 2026-05-05 09:25 | 1.4 | 93.6 | 0.5 | 0.3 | 71 | 1.0 | 70 | 841.01 | 83.1 | 0.25 |
| 2026-05-05 09:20 | 1.5 | 93.9 | 0.7 | 0.2 | 72 | 0.9 | 72 | 841.02 | 73.0 | 0.25 |
| 2026-05-05 09:15 | 1.4 | 94.4 | 0.6 | 0.1 | 202 | 0.4 | 202 | 841.04 | 72.9 | 0.00 |
| 2026-05-05 09:10 | 1.3 | 94.4 | 0.5 | 0.8 | 202 | 1.2 | 236 | 841.14 | 70.6 | 0.25 |
| 2026-05-05 09:05 | 1.3 | 94.4 | 0.5 | 1.2 | 238 | 1.7 | 221 | 841.27 | 68.8 | 0.25 |
| 2026-05-05 09:00 | 1.4 | 94.7 | 0.6 | 1.4 | 227 | 1.8 | 223 | 841.34 | 67.8 | 0.25 |
| 2026-05-05 08:55 | 1.4 | 95.0 | 0.6 | 0.9 | 202 | 1.3 | 207 | 841.38 | 75.8 | 0.25 |
| 2026-05-05 08:50 | 1.3 | 95.2 | 0.6 | 1.0 | 236 | 1.4 | 260 | 841.38 | 80.9 | 0.00 |
| 2026-05-05 08:45 | 1.3 | 95.3 | 0.6 | 0.7 | 262 | 1.3 | 262 | 841.38 | 81.6 | 0.25 |
| 2026-05-05 08:40 | 1.1 | 95.3 | 0.5 | 0.9 | 268 | 1.3 | 286 | 841.38 | 79.7 | 0.25 |
| 2026-05-05 08:35 | 1.0 | 95.3 | 0.3 | 0.7 | 283 | 0.9 | 288 | 841.38 | 85.3 | 0.25 |
| 2026-05-05 08:30 | 0.8 | 95.2 | 0.1 | 0.6 | 307 | 0.8 | 310 | 841.37 | 79.6 | 0.25 |
| 2026-05-05 08:25 | 0.8 | 95.0 | 0.1 | 0.2 | 310 | 0.6 | 310 | 841.30 | 75.2 | 0.25 |
| 2026-05-05 08:20 | 0.9 | 95.1 | 0.2 | 0.0 | 296 | 0.0 | 296 | 841.28 | 76.4 | 0.25 |
| 2026-05-05 08:15 | 0.8 | 95.2 | 0.2 | 0.0 | 296 | 0.0 | 296 | 841.30 | 65.2 | 0.00 |
| 2026-05-05 08:10 | 0.8 | 95.2 | 0.1 | 0.0 | 296 | 0.0 | 296 | 841.29 | 51.0 | 0.51 |
| 2026-05-05 08:05 | 0.8 | 95.3 | 0.1 | 0.1 | 296 | 0.4 | 294 | 841.29 | 51.0 | 0.00 |
| 2026-05-05 08:00 | 0.7 | 95.4 | 0.1 | 0.7 | 294 | 1.0 | 315 | 841.28 | 58.5 | 0.00 |
| 2026-05-05 07:55 | 0.6 | 95.4 | -0.0 | 0.8 | 315 | 1.1 | 319 | 841.27 | 63.8 | 0.00 |
| 2026-05-05 07:50 | 0.6 | 95.4 | -0.1 | 1.2 | 319 | 1.4 | 322 | 841.22 | 61.6 | 0.00 |
| 2026-05-05 07:45 | 0.6 | 95.3 | -0.1 | 1.4 | 323 | 1.5 | 320 | 841.15 | 49.5 | 0.00 |
| 2026-05-05 07:40 | 0.6 | 95.2 | -0.1 | 1.5 | 315 | 1.6 | 315 | 841.15 | 40.3 | 0.00 |
| 2026-05-05 07:35 | 0.6 | 95.3 | -0.1 | 1.3 | 314 | 1.5 | 314 | 841.22 | 38.3 | 0.00 |

Tropical Cyclone Product Developer
coleman.mcclelland@colostate.edu
Cooperative Institute for Research in the Atmosphere
Colorado State University
1375 Campus Delivery
Fort Collins, CO 80523-1375